Regional Weather Roundup
Issued by NWS Northern Indiana

Home | Current Version | Previous Version | Text Only | Print | Product List | Glossary Off
Versions: 1 2 3 4 5 6 7 8 9 10 11 12 13 14 15 16 17 18 19 20 21 22 23 24 25 26 27 28 29 30 31 32 33 34 35 36 37 38 39 40 41 42 43 44 45 46 47 48 49 50

000
ASUS43 KIWX 010410
RWRIWX

KIWX WEATHER ROUNDUP
NATIONAL WEATHER SERVICE NORTHERN INDIANA
1200 AM EDT MON SEP 01 2014

NOTE: "FAIR" INDICATES FEW OR NO CLOUDS BELOW 12,000 FEET WITH NO
SIGNIFICANT WEATHER AND/OR OBSTRUCTIONS TO VISIBILITY.

* THESE STATIONS ARE NOT UNDER NWS QUALITY CONTROL. THEY ALSO MAY NOT
  REPORT WEATHER SUCH AS PRECIPITATION OR FOG.

INZ001>027-010500-
NORTHERN INDIANA

CITY           SKY/WX    TMP DP  RH WIND       PRES   REMARKS
GARY*          CLEAR     74  70  87 S3        29.90R
VALPARAISO     CLEAR     72  69  90 S3        29.92R
MICHIGAN CITY* CLEAR     68  68 100 CALM      29.92R
LAPORTE*       CLEAR     67  67 100 CALM      29.93R
KNOX*          CLEAR     69  67  91 S3        29.91R
SOUTH BEND     CLEAR     73  69  87 S6        29.92R
GOSHEN         CLEAR     73  69  87 S6        29.92S
MONTICELLO*    CLEAR     73  71  93 S3        29.92R
LOGANSPORT*    CLEAR     70  68  94 S6        29.94R
ROCHESTER*     CLEAR     73  72  94 S3        29.94R
WARSAW*        PTCLDY    72  70  94 CALM      29.93R
ANGOLA*        CLEAR     68  61  77 S3        29.93F
FORT WAYNE     PTCLDY    71  69  93 S7        29.95S
HUNTINGTON*    MOCLDY    72  70  96 S3        29.95R
PERU/GRISSOM   CLEAR     71  71 100 SE5       29.94R
MARION*        CLEAR     71  68  91 S7        29.96S

$$
INZ028>050-010500-
CENTRAL INDIANA

CITY           SKY/WX    TMP DP  RH WIND       PRES   REMARKS
LAFAYETTE      CLEAR     73  70  90 S7        29.93R
KOKOMO*        CLEAR     72  68  88 S8        29.94R
MUNCIE*        CLEAR     73  68  84 S8        29.96F
INDIANAPOLIS   PTCLDY    73  69  87 S9        29.95R

$$
MIZ043>046-050>051-056>058-064>065-071>073-077>080-010500-
SOUTHWEST LOWER MICHIGAN

CITY           SKY/WX    TMP DP  RH WIND       PRES   REMARKS
BATTLE CREEK   CLEAR     71  67  87 SE5       29.92F
BENTON HARBOR  CLEAR     70  66  87 S3        29.90R
COLDWATER*     CLEAR     69  68  96 CALM      29.93S FOG
HILLSDALE*     CLEAR     69  69 100 S3        29.95S FOG
HOLLAND        CLEAR     69  66  90 SE6       29.90R
GRAND RAPIDS   CLEAR     67  67 100 S6        29.90S
KALAMAZOO      CLEAR     70  66  87 S5        29.92S
STURGIS*         N/A     70  70 100 S5        29.93R
THREE RIVERS*  FAIR      70  68  95 CALM      29.92S FOG

$$
OHZ001>008-015>018-024>025-010500-
NORTHWEST OHIO

CITY           SKY/WX    TMP DP  RH WIND       PRES   REMARKS
WAUSEON*       FAIR      72  70  94 S7        29.94S
DEFIANCE       CLEAR     72  66  81 S5        29.94S
FINDLAY        CLEAR     72  68  87 S7        29.96S
TOLEDO EXPRESS CLEAR     71  69  93 S3        29.93F
TOLEDO METCALF CLEAR     72  68  87 S6        29.94F
LIMA           MOCLDY    72  69  90 S7        29.98S

$$
&&


USA.gov is the U.S. government's official web portal to all federal, state and local government web resources and services.